Location: Unspecified
(0.0000°N, 0.0000°E)
Time: 22:55:49
(UTC+00:00)

IBEX - Pass Details

Date: 28 May 2019
Orbit: 43050 x 333428 km, 30.2° (Epoch: 06 August)

Event Time Altitude Azimuth Distance (km) Brightness Sun altitude
Rises 21:20:36 0° 101° (E) 291,496 ? -46.2°
Reaches altitude 10° 22:02:35 10° 102° (ESE) 289,037 ? -54.8°
Maximum altitude 03:23:57 77° 179° (S) 272,975 ? -35.3°
Drops below altitude 10° 08:46:58 10° 256° (WSW) 265,608 ? 38.9°
Sets 09:29:33 0° 256° (WSW) 264,980 ? 48.1°
